TimeCST,TemperatureF,Dew PointF,Humidity,Sea Level PressureIn,VisibilityMPH,Wind Direction,Wind SpeedMPH,Gust SpeedMPH,PrecipitationIn,Events,Conditions,WindDirDegrees,DateUTC
12:53 AM,36.0,36.0,100,29.94,0.2,Calm,Calm,-,N/A,Fog,Fog,0,2013-02-05 06:53:00
1:51 AM,35.6,35.6,100,29.94,2.0,Calm,Calm,-,N/A,,Overcast,0,2013-02-05 07:51:00
1:53 AM,36.0,35.1,97,29.94,3.0,Calm,Calm,-,N/A,,Overcast,0,2013-02-05 07:53:00
2:25 AM,33.8,33.8,100,29.94,3.0,Calm,Calm,-,N/A,,Partly Cloudy,0,2013-02-05 08:25:00
2:32 AM,35.6,33.8,93,29.94,2.5,Calm,Calm,-,N/A,,Partly Cloudy,0,2013-02-05 08:32:00
2:44 AM,35.6,33.8,93,29.94,3.0,Calm,Calm,-,N/A,,Scattered Clouds,0,2013-02-05 08:44:00
2:53 AM,35.1,34.0,96,29.94,4.0,Calm,Calm,-,N/A,,Partly Cloudy,0,2013-02-05 08:53:00
3:24 AM,33.8,33.8,100,29.94,2.5,Calm,Calm,-,N/A,,Mostly Cloudy,0,2013-02-05 09:24:00
3:30 AM,35.6,33.8,93,29.94,0.8,Calm,Calm,-,N/A,,Mist,0,2013-02-05 09:30:00
3:53 AM,35.1,34.0,96,29.94,0.2,Calm,Calm,-,N/A,Fog,Fog,0,2013-02-05 09:53:00
4:53 AM,33.1,32.0,96,29.94,0.8,Calm,Calm,-,N/A,,Overcast,0,2013-02-05 10:53:00
5:53 AM,34.0,34.0,100,29.96,0.2,Calm,Calm,-,N/A,Fog,Fog,0,2013-02-05 11:53:00
6:53 AM,35.1,34.0,96,29.98,0.2,Calm,Calm,-,N/A,Fog,Fog,0,2013-02-05 12:53:00
7:53 AM,35.1,33.1,92,30.01,0.2,Calm,Calm,-,N/A,Fog,Fog,0,2013-02-05 13:53:00
8:53 AM,35.1,35.1,100,30.03,0.2,Calm,Calm,-,N/A,Fog,Fog,0,2013-02-05 14:53:00
9:53 AM,37.9,37.9,100,30.04,0.2,Calm,Calm,-,N/A,Fog,Fog,0,2013-02-05 15:53:00
10:53 AM,42.1,42.1,100,30.05,1.0,Calm,Calm,-,N/A,,Overcast,0,2013-02-05 16:53:00
11:06 AM,42.8,42.8,100,30.05,2.5,Calm,Calm,-,N/A,,Overcast,0,2013-02-05 17:06:00
11:14 AM,42.8,42.8,100,30.05,4.0,Calm,Calm,-,N/A,,Overcast,0,2013-02-05 17:14:00
11:46 AM,46.4,42.8,87,30.04,10.0,Variable,3.5,-,N/A,,Partly Cloudy,0,2013-02-05 17:46:00
11:53 AM,48.0,44.1,86,30.03,10.0,Calm,Calm,-,N/A,,Partly Cloudy,0,2013-02-05 17:53:00
12:53 PM,54.0,46.9,77,30.01,10.0,Calm,Calm,-,N/A,,Clear,0,2013-02-05 18:53:00
1:53 PM,59.0,48.0,67,29.98,10.0,Calm,Calm,-,N/A,,Clear,0,2013-02-05 19:53:00
2:53 PM,62.1,48.9,62,29.96,10.0,Calm,Calm,-,N/A,,Clear,0,2013-02-05 20:53:00
3:53 PM,64.0,48.9,58,29.96,10.0,South,4.6,-,N/A,,Clear,190,2013-02-05 21:53:00
4:53 PM,64.0,48.9,58,29.96,10.0,Calm,Calm,-,N/A,,Clear,0,2013-02-05 22:53:00
5:53 PM,53.1,48.9,86,29.97,10.0,Calm,Calm,-,N/A,,Clear,0,2013-02-05 23:53:00
6:53 PM,48.9,45.0,86,29.99,10.0,Calm,Calm,-,N/A,,Clear,0,2013-02-06 00:53:00
7:53 PM,45.0,42.1,90,30.01,7.0,Calm,Calm,-,N/A,,Clear,0,2013-02-06 01:53:00
8:53 PM,45.0,43.0,93,30.02,4.0,Calm,Calm,-,N/A,,Clear,0,2013-02-06 02:53:00
9:53 PM,42.1,39.9,92,30.04,4.0,Calm,Calm,-,N/A,,Clear,0,2013-02-06 03:53:00
10:21 PM,42.8,41.0,93,30.05,2.5,Calm,Calm,-,N/A,,Clear,0,2013-02-06 04:21:00
10:33 PM,42.8,41.0,93,30.05,4.0,Calm,Calm,-,N/A,,Clear,0,2013-02-06 04:33:00
10:53 PM,41.0,39.0,93,30.05,3.0,Calm,Calm,-,N/A,,Clear,0,2013-02-06 04:53:00
11:04 PM,41.0,39.2,93,30.05,2.5,Calm,Calm,-,N/A,,Clear,0,2013-02-06 05:04:00
11:21 PM,39.2,39.2,100,30.05,4.0,Calm,Calm,-,N/A,,Clear,0,2013-02-06 05:21:00
11:53 PM,39.9,37.9,93,30.05,3.0,Calm,Calm,-,N/A,,Clear,0,2013-02-06 05:53:00